Weather History for Hibbing, MN

Change the Weather History Date:

Monday, October 28, 2013

  Actual Average Record
Temperature  
Mean Temperature 26 °F -  
Max Temperature 39 °F 45 °F 63 °F (1989)
Min Temperature 15 °F 27 °F 14 °F (1988)
Degree Days  
Heating Degree Days 39    
Moisture  
Dew Point 14 °F    
Average Humidity 63    
Maximum Humidity 88    
Minimum Humidity 37    
Precipitation  
Precipitation 0.00 in - - ()
Sea Level Pressure  
Sea Level Pressure 30.51 in    
Wind  
Wind Speed 5 mph (NNE)    
Max Wind Speed 13 mph    
Max Gust Speed 18 mph    
Visibility 10 miles    
Events      
Averages and records for this station are not official NWS values.
T = Trace of Precipitation, MM = Missing Value Source: NWS Daily Summary

Daily Weather History Graph

Daily Weather History Graph

Search for Another Location

Airport:

Trip Planner

Search our weather history database for the weather conditions in past years. The results will help you decide how hot, cold, wet, or windy it might be!

Date:

Astronomy

Oct. 28, 2013 Rise Set
Actual Time 7:49 AM CDT 6:00 PM CDT
Civil Twilight 7:17 AM CDT 6:31 PM CDT
Nautical Twilight 6:41 AM CDT 7:07 PM CDT
Astronomical Twilight 6:05 AM CDT 7:43 PM CDT
Moon 1:19 AM CDT (10/28) 3:03 PM CDT (10/28)
Length of Visible Light 11h 14m
Length of Day
10h 10m
Waning Crescent, 34% of the Moon is Illuminated
Oct 28
Waning Crescent
Nov 3
New
Nov 9
First Quarter
Nov 17
Full
Nov 25
Last Quarter

Hourly Weather History & Observations

Time (CDT) Temp. Windchill Dew Point Humidity Pressure Visibility Wind Dir Wind Speed Gust Speed Precip Events Conditions
12:53 AM 28.0 °F 17.5 °F 15.1 °F 58% 30.35 in 10.0 mi NE 12.7 mph 18.4 mph N/A   Clear
1:53 AM 27.0 °F 17.3 °F 14.0 °F 58% 30.38 in 10.0 mi NE 10.4 mph - N/A   Clear
2:53 AM 26.1 °F 16.8 °F 14.0 °F 60% 30.41 in 10.0 mi NE 9.2 mph - N/A   Clear
3:53 AM 24.1 °F 18.2 °F 14.0 °F 65% 30.43 in 10.0 mi ENE 4.6 mph - N/A   Clear
4:53 AM 23.0 °F 18.4 °F 14.0 °F 68% 30.46 in 10.0 mi NE 3.5 mph - N/A   Clear
5:53 AM 19.9 °F - 12.9 °F 74% 30.49 in 10.0 mi Calm Calm - N/A   Clear
6:53 AM 16.0 °F - 12.0 °F 84% 30.52 in 10.0 mi Calm Calm - N/A   Clear
7:53 AM 15.1 °F - 12.0 °F 88% 30.54 in 10.0 mi Calm Calm - N/A   Clear
8:53 AM 19.0 °F - 14.0 °F 81% 30.57 in 10.0 mi Calm Calm - N/A   Mostly Cloudy
9:53 AM 28.0 °F - 18.0 °F 66% 30.58 in 10.0 mi Calm Calm - N/A   Clear
10:53 AM 30.9 °F 24.3 °F 17.1 °F 57% 30.58 in 10.0 mi NNE 6.9 mph - N/A   Clear
11:53 AM 32.0 °F - 17.1 °F 54% 30.57 in 10.0 mi Calm Calm - 0.00 in   Clear
12:53 PM 35.1 °F 32.2 °F 17.1 °F 48% 30.56 in 10.0 mi NW 3.5 mph - N/A   Clear
1:53 PM 35.1 °F - 16.0 °F 46% 30.54 in 10.0 mi Calm Calm - N/A   Clear
2:53 PM 37.9 °F 34.4 °F 16.0 °F 41% 30.53 in 10.0 mi NNW 4.6 mph - N/A   Clear
3:53 PM 36.0 °F - 12.9 °F 39% 30.52 in 10.0 mi Calm Calm - N/A   Clear
4:53 PM 37.0 °F 34.5 °F 12.9 °F 37% 30.51 in 10.0 mi Variable 3.5 mph - N/A   Clear
5:53 PM 30.0 °F - 15.1 °F 54% 30.51 in 10.0 mi Calm Calm - N/A   Clear
6:53 PM 27.0 °F 23.0 °F 15.1 °F 61% 30.52 in 10.0 mi NNW 3.5 mph - N/A   Clear
7:53 PM 25.0 °F - 14.0 °F 63% 30.53 in 10.0 mi Calm Calm - N/A   Clear
8:53 PM 21.9 °F - 14.0 °F 72% 30.53 in 10.0 mi Calm Calm - N/A   Clear
9:53 PM 19.0 °F - 14.0 °F 81% 30.52 in 10.0 mi Calm Calm - N/A   Clear
10:53 PM 18.0 °F - 14.0 °F 84% 30.53 in 10.0 mi Calm Calm - N/A   Clear
11:53 PM 17.1 °F 8.7 °F 12.0 °F 81% 30.52 in 10.0 mi North 5.8 mph - N/A   Clear